EW2348 Weather Reports


Display with metric or nautical units.
time (UTC)temp
F
wind
direction
speed
MPH
gust
MPH
rain 1hr
in
rain 24hr
in
rain mn
in
humidity
%
barometer
mb
20160430145945 54 93 1.0 4.0 0.00 0.00 0.00 94 1011.9
20160430145745 54 105 1.0 5.0 0.00 0.00 0.00 94 1012.0
20160430145646 54 106 2.0 5.0 0.00 0.00 0.00 94 1012.1
20160430145546 54 106 1.0 5.0 0.00 0.00 0.00 94 1012.1
20160430145445 54 105 1.0 5.0 0.00 0.00 0.00 94 1012.1
20160430145345 55 105 1.0 5.0 0.00 0.00 0.00 94 1012.2
20160430145145 54 101 1.0 5.0 0.00 0.00 0.00 93 1011.8
20160430145045 54 101 2.0 5.0 0.00 0.00 0.00 93 1011.9
20160430144945 54 101 3.0 5.0 0.00 0.00 0.00 93 1012.0
20160430144545 54 84 3.0 4.0 0.00 0.00 0.00 93 1012.0
20160430144245 54 62 3.0 4.0 0.00 0.00 0.00 92 1011.7
20160430144146 54 51 2.0 4.0 0.00 0.00 0.00 92 1011.5
20160430144045 54 43 1.0 4.0 0.00 0.00 0.00 92 1011.3
20160430143846 54 20 0.0 4.0 0.00 0.00 0.00 93 1011.3
20160430143746 54 22 1.0 4.0 0.00 0.00 0.00 93 1011.3
20160430143645 54 18 1.0 4.0 0.00 0.00 0.00 93 1011.2
20160430143445 54 349 1.0 4.0 0.00 0.00 0.00 93 1010.9
20160430143246 54 1 1.0 2.0 0.00 0.00 0.00 93 1010.7
20160430143146 54 1 0.0 1.0 0.00 0.00 0.00 93 1010.9
20160430142243 54 320 2.0 5.0 0.00 0.00 0.00 95 1010.8
20160430142043 54 319 1.0 5.0 0.00 0.00 0.00 95 1010.9
20160430141943 54 316 1.0 5.0 0.00 0.00 0.00 95 1010.8
20160430141643 54 312 3.0 5.0 0.00 0.00 0.00 95 1010.8
20160430141443 54 314 3.0 5.0 0.00 0.00 0.00 95 1010.5
20160430141248 54 312 2.0 5.0 0.00 0.00 0.00 95 1010.5
20160430141047 54 312 3.0 5.0 0.00 0.00 0.00 95 1010.5
20160430140946 54 314 3.0 5.0 0.00 0.00 0.00 96 1010.4
20160430140546 54 315 3.0 9.0 0.00 0.00 0.00 97 1010.6
20160430140246 54 315 3.0 9.0 0.00 0.00 0.00 97 1010.4
20160430140043 54 314 3.0 9.0 0.00 0.00 0.00 97 1010.4
20160430135943 54 310 3.0 9.0 0.00 0.00 0.00 97 1010.5
20160430135843 54 307 3.0 9.0 0.00 0.00 0.00 97 1010.4
20160430135543 54 309 3.0 7.0 0.00 0.00 0.00 97 1010.2
20160430135243 54 304 3.0 7.0 0.00 0.00 0.00 97 1010.6
20160430135143 54 304 2.0 7.0 0.00 0.00 0.00 97 1010.4
20160430134943 53 314 3.0 7.0 0.00 0.00 0.00 98 1010.6
20160430134844 53 324 4.0 7.0 0.00 0.00 0.00 98 1010.4
20160430134643 54 320 1.0 6.0 0.00 0.00 0.00 97 1010.4
20160430134543 54 321 2.0 6.0 0.00 0.00 0.00 97 1010.6
20160430134343 53 324 3.0 6.0 0.00 0.00 0.00 98 1010.6
20160430134243 53 324 3.0 6.0 0.00 0.00 0.00 98 1010.6
20160430134143 54 321 2.0 6.0 0.00 0.00 0.00 97 1010.6
20160430133843 53 296 3.0 11.0 0.00 0.00 0.00 98 1010.7
20160430133743 53 289 1.0 11.0 0.00 0.00 0.00 98 1010.8
20160430133644 53 290 1.0 11.0 0.00 0.00 0.00 98 1010.7
20160430133543 53 290 1.0 11.0 0.00 0.00 0.00 98 1010.8
20160430133443 53 297 2.0 11.0 0.00 0.00 0.00 98 1010.8
20160430133244 53 296 1.0 11.0 0.00 0.00 0.00 98 1010.8
20160430133143 53 298 1.0 11.0 0.00 0.00 0.00 98 1010.6
20160430133043 53 298 2.0 11.0 0.00 0.00 0.00 98 1010.7
20160430132343 53 281 3.0 6.0 0.00 0.00 0.00 98 1010.4
20160430132244 53 276 3.0 5.0 0.00 0.00 0.00 98 1010.5
20160430132143 53 271 2.0 5.0 0.00 0.00 0.00 98 1010.3
20160430131843 53 270 3.0 5.0 0.00 0.00 0.00 98 1010.4
20160430131744 53 282 2.0 5.0 0.00 0.00 0.00 98 1010.4
20160430131445 53 290 2.0 5.0 0.00 0.00 0.00 98 1010.5
20160430131343 53 292 2.0 5.0 0.00 0.00 0.00 98 1010.6
20160430131043 53 301 3.0 5.0 0.00 0.00 0.00 98 1010.7
20160430130943 53 302 1.0 5.0 0.00 0.00 0.00 98 1010.7
20160430130543 53 304 1.0 5.0 0.00 0.00 0.00 98 1010.7
20160430130443 53 310 1.0 5.0 0.00 0.00 0.00 98 1010.8
20160430130343 53 309 1.0 5.0 0.00 0.00 0.00 98 1010.8
20160430130244 53 305 2.0 5.0 0.00 0.00 0.00 98 1010.7
20160430130143 53 302 3.0 5.0 0.00 0.00 0.00 98 1010.8
20160430130043 53 301 1.0 4.0 0.00 0.00 0.00 98 1010.7
20160430125843 53 303 1.0 4.0 0.00 0.00 0.00 98 1010.6
20160430125643 53 303 2.0 4.0 0.00 0.00 0.00 98 1010.9
20160430125443 53 297 0.0 4.0 0.00 0.00 0.00 98 1010.9
20160430125244 53 310 1.0 4.0 0.00 0.00 0.00 98 1010.8
20160430125143 53 312 1.0 4.0 0.00 0.00 0.00 98 1011.0
20160430125043 53 313 1.0 4.0 0.00 0.00 0.00 98 1010.9
20160430124844 53 324 2.0 4.0 0.00 0.00 0.00 98 1010.8
20160430124643 53 313 1.0 4.0 0.00 0.00 0.00 98 1010.9
20160430124443 53 307 0.0 4.0 0.00 0.00 0.00 98 1010.9
20160430124243 53 303 1.0 4.0 0.00 0.00 0.00 98 1010.9
20160430124043 53 297 0.0 4.0 0.00 0.00 0.00 98 1011.0
20160430123843 53 300 2.0 4.0 0.00 0.00 0.00 98 1011.1
20160430123743 53 299 2.0 4.0 0.00 0.00 0.00 98 1011.0
20160430123544 53 300 1.0 4.0 0.00 0.00 0.00 98 1010.9
20160430123444 53 304 2.0 5.0 0.00 0.00 0.00 98 1010.9
20160430123143 53 307 2.0 5.0 0.00 0.00 0.00 98 1011.0
20160430123044 53 307 1.0 5.0 0.00 0.00 0.00 98 1010.9
20160430122943 53 304 1.0 5.0 0.00 0.00 0.00 98 1011.0
20160430122843 53 304 3.0 5.0 0.00 0.00 0.00 98 1010.8
20160430122743 53 307 1.0 5.0 0.00 0.00 0.00 98 1010.8
20160430122443 53 299 3.0 5.0 0.00 0.00 0.00 98 1010.8
20160430122343 53 306 3.0 5.0 0.00 0.00 0.00 98 1010.8
20160430122243 53 311 2.0 5.0 0.00 0.00 0.00 98 1010.8
20160430122143 53 313 1.0 5.0 0.00 0.00 0.00 98 1011.0
20160430122043 53 313 0.0 5.0 0.00 0.00 0.00 98 1010.8
20160430121944 53 314 1.0 5.0 0.00 0.00 0.00 98 1010.9
20160430121843 52 314 1.0 5.0 0.00 0.00 0.00 98 1011.0
20160430121743 52 314 3.0 5.0 0.00 0.00 0.00 98 1011.0
20160430121643 52 317 2.0 5.0 0.00 0.00 0.00 98 1011.0
20160430121543 52 316 2.0 4.0 0.00 0.00 0.00 98 1010.8
20160430120743 52 270 1.0 6.0 0.00 0.00 0.00 98 1010.8
20160430120643 52 274 1.0 6.0 0.00 0.00 0.00 98 1010.8
20160430120543 52 276 1.0 6.0 0.00 0.00 0.00 98 1010.8
20160430120343 52 277 1.0 6.0 0.00 0.00 0.00 98 1010.9
20160430120243 52 283 1.0 6.0 0.00 0.00 0.00 98 1010.9
20160430115943 52 300 1.0 6.0 0.00 0.00 0.00 98 1011.0
20160430115743 52 310 1.0 6.0 0.00 0.00 0.00 98 1010.8
20160430115643 52 310 3.0 6.0 0.00 0.00 0.00 98 1010.9
20160430115543 52 315 3.0 6.0 0.00 0.00 0.00 98 1010.9
20160430115443 52 323 3.0 6.0 0.00 0.00 0.00 98 1010.8
20160430115343 52 328 4.0 6.0 0.00 0.00 0.00 98 1010.9
20160430115243 52 328 3.0 6.0 0.00 0.00 0.00 98 1010.8
20160430115143 52 322 3.0 6.0 0.00 0.00 0.00 98 1010.9
20160430114843 52 319 3.0 6.0 0.00 0.00 0.00 98 1011.3
20160430114643 52 311 1.0 6.0 0.00 0.00 0.00 98 1011.0
20160430114543 52 307 3.0 6.0 0.00 0.00 0.00 98 1010.9
20160430114443 52 306 1.0 5.0 0.00 0.00 0.00 98 1011.1
20160430114243 52 305 2.0 5.0 0.00 0.00 0.00 98 1011.2
20160430114143 53 306 2.0 5.0 0.00 0.00 0.00 98 1011.1
20160430114043 53 307 1.0 5.0 0.00 0.00 0.00 98 1010.9
20160430113843 52 312 3.0 5.0 0.00 0.00 0.00 98 1011.2
20160430113743 52 319 3.0 5.0 0.00 0.00 0.00 98 1011.0
20160430113543 52 327 3.0 5.0 0.00 0.00 0.00 98 1011.1
20160430113443 52 326 3.0 5.0 0.00 0.00 0.00 98 1011.2
20160430113343 52 327 1.0 5.0 0.00 0.00 0.00 98 1011.0
20160430113243 52 328 1.0 5.0 0.00 0.00 0.00 98 1011.2
20160430113143 52 326 1.0 5.0 0.00 0.00 0.00 98 1010.9
20160430113043 52 327 1.0 5.0 0.00 0.00 0.00 98 1011.0
20160430112943 52 333 3.0 5.0 0.00 0.00 0.00 98 1011.1
20160430112843 52 331 3.0 5.0 0.00 0.00 0.00 98 1011.2
20160430112743 52 330 2.0 4.0 0.00 0.00 0.00 98 1011.3
20160430112243 52 311 1.0 3.0 0.00 0.00 0.00 98 1011.5
20160430112143 52 311 1.0 3.0 0.00 0.00 0.00 98 1011.6
20160430111943 52 307 0.0 4.0 0.00 0.00 0.00 98 1011.4
20160430111842 53 305 0.0 4.0 0.00 0.00 0.00 97 1011.7
20160430111643 53 312 0.0 6.0 0.00 0.00 0.00 97 1011.4
20160430111443 53 320 1.0 6.0 0.00 0.00 0.00 97 1011.3
20160430111143 53 316 2.0 6.0 0.00 0.00 0.00 97 1011.2
20160430110843 52 306 1.0 6.0 0.00 0.00 0.00 97 1011.2
20160430110442 53 306 2.0 5.0 0.00 0.00 0.00 97 1011.1
20160430110243 53 310 2.0 5.0 0.00 0.00 0.00 97 1011.0
20160430110143 53 307 3.0 5.0 0.00 0.00 0.00 97 1011.0
20160430105943 53 316 1.0 7.0 0.00 0.00 0.00 96 1011.1
20160430105843 53 312 3.0 7.0 0.00 0.00 0.00 96 1011.2
20160430105743 53 309 3.0 7.0 0.00 0.00 0.00 96 1011.0
20160430105643 52 307 3.0 7.0 0.00 0.00 0.00 96 1011.0
20160430105543 53 307 2.0 7.0 0.00 0.00 0.00 96 1011.0
20160430105444 52 310 1.0 7.0 0.00 0.00 0.00 96 1011.1
20160430105343 52 314 4.0 9.0 0.00 0.00 0.00 96 1011.1
20160430105143 53 315 2.0 9.0 0.00 0.00 0.00 95 1011.1
20160430104943 53 317 4.0 9.0 0.00 0.00 0.00 95 1011.2
20160430104843 53 318 4.0 9.0 0.00 0.00 0.00 95 1011.4
20160430104543 53 319 3.0 9.0 0.00 0.00 0.00 95 1011.3
20160430104243 53 294 1.0 5.0 0.00 0.00 0.00 95 1011.2
20160430104043 53 290 2.0 5.0 0.00 0.00 0.00 94 1011.1
20160430103943 53 286 2.0 5.0 0.00 0.00 0.00 94 1011.1
20160430103643 53 295 0.0 3.0 0.00 0.00 0.00 94 1011.3
20160430103543 53 300 0.0 5.0 0.00 0.00 0.00 94 1011.3
20160430103343 53 322 2.0 5.0 0.00 0.00 0.00 93 1011.2
20160430103243 53 329 2.0 5.0 0.00 0.00 0.00 93 1011.3
20160430103143 53 336 1.0 5.0 0.00 0.00 0.00 93 1011.3
20160430103043 53 336 1.0 5.0 0.00 0.00 0.00 93 1011.4
20160430102843 53 335 1.0 7.0 0.00 0.00 0.00 93 1011.3
20160430102743 53 336 1.0 7.0 0.00 0.00 0.00 93 1011.4
20160430102643 53 335 1.0 7.0 0.00 0.00 0.00 93 1011.4
20160430102343 53 315 1.0 7.0 0.00 0.00 0.00 94 1011.2
20160430102143 53 311 2.0 7.0 0.00 0.00 0.00 94 1011.3
20160430102043 53 311 1.0 7.0 0.00 0.00 0.00 94 1011.1
20160430101944 53 311 4.0 7.0 0.00 0.00 0.00 94 1011.4
20160430101643 53 297 1.0 4.0 0.00 0.00 0.00 95 1011.2
20160430101443 53 295 0.0 4.0 0.00 0.00 0.00 94 1011.2
20160430101243 53 288 1.0 4.0 0.00 0.00 0.00 94 1011.2
20160430101042 53 278 1.0 4.0 0.00 0.00 0.00 94 1010.9
20160430100643 53 279 2.0 6.0 0.00 0.00 0.00 95 1010.7
20160430100442 53 283 2.0 6.0 0.00 0.00 0.00 95 1010.9
20160430100343 53 283 2.0 6.0 0.00 0.00 0.00 95 1011.0
20160430100243 53 284 2.0 6.0 0.00 0.00 0.00 95 1010.8
20160430100143 53 284 2.0 6.0 0.00 0.00 0.00 95 1011.1
20160430100042 53 284 2.0 6.0 0.00 0.00 0.00 95 1010.9
20160430095943 53 285 2.0 6.0 0.00 0.00 0.00 95 1011.1
20160430095743 53 287 3.0 6.0 0.00 0.00 0.00 95 1011.1
20160430095643 53 284 1.0 5.0 0.00 0.00 0.00 95 1011.0
20160430095443 53 297 3.0 6.0 0.00 0.00 0.00 94 1010.9
20160430095343 53 300 1.0 6.0 0.00 0.00 0.00 94 1011.2
20160430095043 53 311 2.0 6.0 0.00 0.00 0.00 94 1011.1
20160430094943 53 311 3.0 6.0 0.00 0.00 0.00 94 1011.1
20160430094743 53 311 3.0 6.0 0.00 0.00 0.00 94 1011.2
20160430094644 53 302 3.0 6.0 0.00 0.00 0.00 94 1011.3
20160430094543 53 293 3.0 7.0 0.00 0.00 0.00 94 1011.3
20160430094343 53 282 2.0 7.0 0.00 0.00 0.00 94 1011.3
20160430094144 53 285 1.0 7.0 0.00 0.00 0.00 94 1011.2
20160430094043 53 288 1.0 7.0 0.00 0.00 0.00 94 1011.3
20160430093843 53 287 1.0 7.0 0.00 0.00 0.00 94 1011.2
20160430093743 53 289 1.0 7.0 0.00 0.00 0.00 93 1011.0
20160430093642 53 289 3.0 7.0 0.00 0.00 0.00 93 1011.0
20160430093543 53 291 3.0 7.0 0.00 0.00 0.00 93 1011.1
20160430093043 53 281 1.0 5.0 0.00 0.00 0.00 92 1011.5
20160430092943 53 281 2.0 5.0 0.00 0.00 0.00 92 1011.5
20160430092743 53 283 3.0 5.0 0.00 0.00 0.00 92 1011.5
20160430092442 53 290 2.0 4.0 0.00 0.00 0.00 92 1011.4
20160430092243 53 306 2.0 5.0 0.00 0.00 0.00 92 1011.7
20160430091843 53 322 0.0 5.0 0.00 0.00 0.00 91 1012.0
20160430091742 53 318 1.0 5.0 0.00 0.00 0.00 91 1011.7
20160430091643 53 313 1.0 5.0 0.00 0.00 0.00 91 1011.9
20160430091543 53 313 1.0 5.0 0.00 0.00 0.00 91 1011.7
20160430091443 53 315 0.0 5.0 0.00 0.00 0.00 91 1011.9
20160430091342 53 315 0.0 5.0 0.00 0.00 0.00 91 1011.7
20160430091246 53 312 3.0 5.0 0.00 0.00 0.00 91 1011.9
20160430090743 53 324 1.0 3.0 0.00 0.00 0.00 90 1011.7
20160430090643 53 334 0.0 3.0 0.00 0.00 0.00 90 1012.0
20160430090543 53 336 1.0 3.0 0.00 0.00 0.00 90 1011.8
20160430090443 53 337 1.0 3.0 0.00 0.00 0.00 90 1012.1
20160430090243 53 347 1.0 3.0 0.00 0.00 0.00 90 1011.8
20160430090143 53 355 1.0 3.0 0.00 0.00 0.00 90 1011.8
20160430090043 53 1 0.0 3.0 0.00 0.00 0.00 90 1011.8
20160430085843 53 1 1.0 3.0 0.00 0.00 0.00 90 1012.1
20160430085643 53 1 0.0 3.0 0.00 0.00 0.00 90 1012.1
20160430085543 53 13 0.0 3.0 0.00 0.00 0.00 90 1011.8
20160430085443 53 27 0.0 3.0 0.00 0.00 0.00 90 1012.1
20160430085343 53 33 0.0 3.0 0.00 0.00 0.00 90 1012.1
20160430085244 53 35 0.0 3.0 0.00 0.00 0.00 90 1012.0
20160430085143 53 39 1.0 3.0 0.00 0.00 0.00 90 1012.0
20160430084943 53 45 0.0 3.0 0.00 0.00 0.00 90 1012.0
20160430084143 53 1 1.0 5.0 0.00 0.00 0.00 89 1012.1
20160430083843 53 339 1.0 5.0 0.00 0.00 0.00 89 1011.8
20160430083744 53 337 1.0 5.0 0.00 0.00 0.00 89 1011.9
20160430083443 53 336 2.0 5.0 0.00 0.00 0.00 89 1011.6
20160430083246 53 339 1.0 5.0 0.00 0.00 0.00 89 1011.7
20160430083143 53 337 1.0 7.0 0.00 0.00 0.00 89 1011.6
20160430082843 53 330 0.0 9.0 0.00 0.00 0.00 89 1011.6
20160430082743 53 328 0.0 9.0 0.00 0.00 0.00 89 1011.4
20160430082542 53 321 2.0 9.0 0.00 0.00 0.00 89 1011.5
20160430082343 53 312 3.0 9.0 0.00 0.00 0.00 89 1011.2
20160430081943 53 308 3.0 7.0 0.00 0.00 0.00 90 1011.1
20160430081843 53 312 4.0 7.0 0.00 0.00 0.00 90 1011.3
20160430081543 53 304 2.0 6.0 0.00 0.00 0.00 90 1011.4
20160430081443 53 296 3.0 6.0 0.00 0.00 0.00 90 1011.4
20160430081143 53 289 2.0 6.0 0.00 0.00 0.00 90 1011.3
20160430081043 53 284 3.0 6.0 0.00 0.00 0.00 90 1011.3
20160430080943 53 279 3.0 6.0 0.00 0.00 0.00 90 1011.1
20160430080843 53 275 3.0 6.0 0.00 0.00 0.00 90 1011.3
20160430080743 53 273 5.0 6.0 0.00 0.00 0.00 90 1011.1
20160430080642 53 274 3.0 9.0 0.00 0.00 0.00 89 1010.9
20160430075943 53 305 3.0 9.0 0.00 0.00 0.00 89 1011.2
20160430075843 53 312 3.0 9.0 0.00 0.00 0.00 89 1011.4
20160430075743 53 310 4.0 9.0 0.00 0.00 0.00 89 1011.2
20160430075643 53 313 5.0 9.0 0.00 0.00 0.00 89 1011.4
20160430075443 53 315 3.0 9.0 0.00 0.00 0.00 89 1011.5
20160430075343 53 311 2.0 9.0 0.00 0.00 0.00 89 1011.3
20160430075242 53 308 3.0 9.0 0.00 0.00 0.00 89 1011.8
20160430075143 53 312 3.0 9.0 0.00 0.00 0.00 89 1011.4
20160430075043 53 309 5.0 9.0 0.00 0.00 0.00 89 1011.5
20160430074843 53 312 3.0 9.0 0.00 0.00 0.00 89 1011.6
20160430074642 53 319 3.0 9.0 0.00 0.00 0.00 88 1011.7
20160430074543 53 319 3.0 7.0 0.00 0.00 0.00 88 1011.9
20160430074443 53 319 2.0 7.0 0.00 0.00 0.00 88 1011.9
20160430074343 53 328 1.0 7.0 0.00 0.00 0.00 88 1011.7
20160430074243 53 334 1.0 7.0 0.00 0.00 0.00 88 1011.7
20160430073943 53 341 3.0 6.0 0.00 0.00 0.00 88 1011.8
20160430073743 54 342 1.0 6.0 0.00 0.00 0.00 87 1012.0
20160430073643 53 337 1.0 6.0 0.00 0.00 0.00 88 1011.9
20160430073443 53 342 3.0 6.0 0.00 0.00 0.00 88 1011.9
20160430073343 53 338 3.0 6.0 0.00 0.00 0.00 88 1011.7
20160430073243 54 327 3.0 6.0 0.00 0.00 0.00 87 1011.9
20160430073143 53 325 2.0 9.0 0.00 0.00 0.00 88 1011.9
20160430073042 54 312 3.0 9.0 0.00 0.00 0.00 87 1011.8
20160430072843 54 317 2.0 9.0 0.00 0.00 0.00 87 1011.8
20160430072743 53 317 3.0 9.0 0.00 0.00 0.00 88 1011.8
20160430072643 53 324 3.0 11.0 0.00 0.00 0.00 88 1012.0
20160430072543 53 324 3.0 11.0 0.00 0.00 0.00 88 1011.9
20160430072443 54 325 1.0 11.0 0.00 0.00 0.00 87 1011.8
20160430072243 53 332 3.0 11.0 0.00 0.00 0.00 87 1011.8
20160430071943 53 340 5.0 11.0 0.00 0.00 0.00 88 1011.7
20160430071643 54 338 7.0 11.0 0.00 0.00 0.00 87 1011.6
20160430071543 54 334 5.0 9.0 0.00 0.00 0.00 87 1011.7
20160430071343 54 329 3.0 9.0 0.00 0.00 0.00 87 1011.6
20160430071242 54 325 2.0 9.0 0.00 0.00 0.00 87 1011.6
20160430071143 54 326 2.0 9.0 0.00 0.00 0.00 87 1011.7
20160430071043 54 326 2.0 9.0 0.00 0.00 0.00 87 1011.6
20160430070943 54 325 3.0 9.0 0.00 0.00 0.00 87 1011.7
20160430070643 54 327 7.0 9.0 0.00 0.00 0.00 87 1011.8
20160430070443 54 332 5.0 7.0 0.00 0.00 0.00 87 1011.7
20160430070043 54 327 3.0 7.0 0.00 0.00 0.00 87 1011.9
20160430065843 54 331 3.0 7.0 0.00 0.00 0.00 87 1011.8
20160430065643 54 318 2.0 7.0 0.00 0.00 0.00 87 1011.9
20160430065243 54 307 3.0 9.0 0.00 0.00 0.00 86 1011.7
20160430065142 54 307 4.0 9.0 0.00 0.00 0.00 86 1011.7
20160430064542 54 307 4.0 10.0 0.00 0.00 0.00 86 1012.1
20160430064443 54 315 4.0 10.0 0.00 0.00 0.00 86 1011.8
20160430064343 54 320 5.0 10.0 0.00 0.00 0.00 86 1011.9
20160430064243 54 330 5.0 10.0 0.00 0.00 0.00 86 1012.0
20160430064143 54 331 5.0 10.0 0.00 0.00 0.00 86 1012.0
20160430064042 54 341 5.0 10.0 0.00 0.00 0.00 86 1012.0
20160430063943 54 324 6.0 10.0 0.00 0.00 0.00 86 1012.0
20160430063843 54 324 4.0 7.0 0.00 0.00 0.00 87 1012.0
20160430063643 54 325 3.0 7.0 0.00 0.00 0.00 87 1011.8
20160430063542 54 325 3.0 7.0 0.00 0.00 0.00 87 1012.0
20160430063443 54 325 1.0 7.0 0.00 0.00 0.00 87 1011.9
20160430063343 54 320 1.0 7.0 0.00 0.00 0.00 87 1011.9
20160430063243 54 315 2.0 7.0 0.00 0.00 0.00 87 1012.0
20160430063143 54 311 3.0 7.0 0.00 0.00 0.00 87 1011.8
20160430063043 54 300 4.0 8.0 0.00 0.00 0.00 87 1012.0
20160430062943 54 303 3.0 8.0 0.00 0.00 0.00 87 1012.1
20160430062843 54 299 3.0 8.0 0.00 0.00 0.00 87 1012.0
20160430062543 54 302 1.0 9.0 0.00 0.00 0.00 87 1012.0
20160430062443 55 306 1.0 9.0 0.00 0.00 0.00 87 1012.0
20160430062343 55 313 1.0 9.0 0.00 0.00 0.00 87 1011.8
20160430062143 54 314 3.0 9.0 0.00 0.00 0.00 86 1011.7
20160430061943 55 321 3.0 11.0 0.00 0.00 0.00 86 1011.8
20160430061543 55 312 2.0 11.0 0.00 0.00 0.00 86 1011.7
20160430061443 55 304 6.0 11.0 0.00 0.00 0.00 86 1011.4
20160430061343 55 296 7.0 11.0 0.00 0.00 0.00 86 1011.5
20160430061043 55 281 5.0 9.0 0.00 0.00 0.00 87 1011.4
20160430060743 55 272 5.0 9.0 0.00 0.00 0.00 87 1011.5
20160430060543 55 280 4.0 9.0 0.00 0.00 0.00 86 1011.5
20160430060443 55 287 4.0 9.0 0.00 0.00 0.00 86 1011.4
20160430060343 55 291 4.0 9.0 0.00 0.00 0.00 86 1011.5
20160430060043 55 296 4.0 11.0 0.00 0.00 0.00 86 1011.5
20160430055643 55 295 4.0 11.0 0.00 0.00 0.00 86 1011.5
20160430055443 55 286 3.0 11.0 0.00 0.00 0.00 86 1011.5
20160430055342 55 288 5.0 11.0 0.00 0.00 0.00 86 1011.7
20160430055243 55 293 7.0 11.0 0.00 0.00 0.00 86 1011.6
20160430054943 56 305 2.0 11.0 0.00 0.00 0.00 86 1011.5
20160430054643 56 314 3.0 11.0 0.00 0.00 0.00 86 1011.7
20160430054343 56 313 5.0 11.0 0.00 0.00 0.00 86 1011.9
20160430054242 56 317 5.0 11.0 0.00 0.00 0.00 86 1011.8
20160430054143 56 322 7.0 11.0 0.00 0.00 0.00 86 1011.7
20160430054043 56 321 7.0 11.0 0.00 0.00 0.00 86 1011.7
20160430053943 56 316 7.0 10.0 0.00 0.00 0.00 86 1011.9
20160430053243 56 301 3.0 8.0 0.00 0.00 0.00 86 1012.0
20160430053143 56 295 3.0 8.0 0.00 0.00 0.00 86 1012.3
20160430052943 56 292 3.0 8.0 0.00 0.00 0.00 86 1012.3
20160430052543 56 281 1.0 8.0 0.00 0.00 0.00 86 1012.1
20160430052443 56 292 3.0 8.0 0.00 0.00 0.00 86 1012.3
20160430052342 56 293 3.0 8.0 0.00 0.00 0.00 86 1012.3
20160430051943 56 295 1.0 8.0 0.00 0.00 0.00 85 1012.4
20160430051842 56 292 1.0 8.0 0.00 0.00 0.00 85 1012.4
20160430051543 56 297 5.0 8.0 0.00 0.00 0.00 85 1012.5
20160430051342 56 286 3.0 7.0 0.00 0.00 0.00 85 1012.5
20160430051243 57 286 3.0 7.0 0.00 0.00 0.00 85 1012.5
20160430051143 57 286 1.0 7.0 0.00 0.00 0.00 85 1012.5
20160430051043 57 283 1.0 7.0 0.00 0.00 0.00 85 1012.4
20160430050942 57 283 5.0 7.0 0.00 0.00 0.00 85 1012.4
20160430050842 57 289 4.0 7.0 0.00 0.00 0.00 85 1012.4
20160430050743 57 286 4.0 7.0 0.00 0.00 0.00 85 1012.4
20160430050643 57 279 1.0 7.0 0.00 0.00 0.00 85 1012.6
20160430050543 57 276 1.0 7.0 0.00 0.00 0.00 85 1012.5
20160430050442 57 276 2.0 7.0 0.00 0.00 0.00 85 1012.5
20160430050343 57 276 3.0 7.0 0.00 0.00 0.00 85 1012.6
20160430050143 57 278 3.0 7.0 0.00 0.00 0.00 84 1012.7
20160430045943 57 291 3.0 8.0 0.00 0.00 0.00 84 1012.5
20160430045843 57 292 1.0 8.0 0.00 0.00 0.00 84 1012.7
20160430045642 57 300 2.0 8.0 0.00 0.00 0.00 84 1012.6
20160430045443 57 309 3.0 8.0 0.00 0.00 0.00 84 1013.0
20160430045343 57 312 2.0 8.0 0.00 0.00 0.00 83 1013.0
20160430045243 57 309 3.0 8.0 0.00 0.00 0.00 83 1012.8
20160430045143 57 316 2.0 8.0 0.00 0.00 0.00 83 1013.1
20160430044743 57 317 3.0 9.0 0.00 0.00 0.00 83 1012.9
20160430044643 57 321 5.0 9.0 0.00 0.00 0.00 83 1012.9
20160430044543 57 323 3.0 9.0 0.00 0.00 0.00 83 1012.8
20160430044143 57 314 3.0 9.0 0.00 0.00 0.00 81 1013.0
20160430043942 57 317 4.0 9.0 0.00 0.00 0.00 82 1013.0
20160430043443 57 291 2.0 7.0 0.00 0.00 0.00 81 1013.0
20160430043342 57 298 4.0 7.0 0.00 0.00 0.00 83 1013.0
20160430043043 57 309 3.0 6.0 0.00 0.00 0.00 81 1013.0
20160430042842 57 308 1.0 6.0 0.00 0.00 0.00 81 1013.2
20160430042742 57 309 1.0 6.0 0.00 0.00 0.00 81 1013.3
20160430042643 57 309 0.0 6.0 0.00 0.00 0.00 80 1013.2
20160430042543 57 312 4.0 6.0 0.00 0.00 0.00 80 1013.1
20160430042342 57 315 3.0 7.0 0.00 0.00 0.00 80 1013.3
20160430041943 57 313 3.0 7.0 0.00 0.00 0.00 80 1012.9
20160430041543 57 310 3.0 7.0 0.00 0.00 0.00 79 1013.1
20160430041342 57 312 5.0 7.0 0.00 0.00 0.00 79 1013.3
20160430041242 57 315 3.0 7.0 0.00 0.00 0.00 79 1013.2
20160430041143 58 314 3.0 7.0 0.00 0.00 0.00 79 1013.3
20160430041043 58 313 3.0 7.0 0.00 0.00 0.00 79 1013.2
20160430040942 58 312 3.0 7.0 0.00 0.00 0.00 79 1013.3
20160430040842 57 313 4.0 7.0 0.00 0.00 0.00 79 1013.3
20160430040442 58 319 4.0 7.0 0.00 0.00 0.00 79 1013.3
20160430040343 58 316 4.0 7.0 0.00 0.00 0.00 79 1013.4
20160430040143 58 315 4.0 7.0 0.00 0.00 0.00 79 1013.4
20160430035943 58 305 4.0 7.0 0.00 0.00 0.00 79 1013.4
20160430035843 58 307 3.0 6.0 0.00 0.00 0.00 79 1013.3
20160430035743 58 298 3.0 5.0 0.00 0.00 0.00 79 1013.3
20160430035642 58 289 2.0 5.0 0.00 0.00 0.00 79 1013.5
20160430035542 58 286 2.0 5.0 0.00 0.00 0.00 79 1013.4
20160430035343 58 291 3.0 5.0 0.00 0.00 0.00 79 1013.5
20160430035243 58 295 3.0 5.0 0.00 0.00 0.00 79 1013.4
20160430034942 58 307 2.0 5.0 0.00 0.00 0.00 80 1013.3
20160430034843 58 308 1.0 5.0 0.00 0.00 0.00 80 1013.4
20160430034743 58 312 2.0 7.0 0.00 0.00 0.00 80 1013.5
20160430034642 58 317 2.0 7.0 0.00 0.00 0.00 80 1013.4
20160430034443 58 318 2.0 7.0 0.00 0.00 0.00 79 1013.6
20160430034343 58 316 3.0 7.0 0.00 0.00 0.00 80 1013.7
20160430034242 58 313 3.0 7.0 0.00 0.00 0.00 80 1013.6
20160430034143 58 305 2.0 7.0 0.00 0.00 0.00 80 1013.6
20160430034042 58 305 2.0 7.0 0.00 0.00 0.00 80 1013.5
20160430033943 58 300 1.0 7.0 0.00 0.00 0.00 80 1013.5
20160430033843 58 298 5.0 7.0 0.00 0.00 0.00 81 1013.6
20160430033743 58 297 2.0 4.0 0.00 0.00 0.00 81 1013.8
20160430033643 58 298 2.0 3.0 0.00 0.00 0.00 81 1013.7
20160430033543 58 295 2.0 4.0 0.00 0.00 0.00 81 1013.5
20160430033443 58 297 1.0 5.0 0.00 0.00 0.00 80 1013.6
20160430033242 58 297 1.0 5.0 0.00 0.00 0.00 80 1013.6
20160430033142 58 301 1.0 5.0 0.00 0.00 0.00 80 1013.6
20160430033042 58 306 2.0 5.0 0.00 0.00 0.00 80 1013.8
20160430032843 58 327 1.0 7.0 0.00 0.00 0.00 80 1013.6
20160430032743 58 330 1.0 7.0 0.00 0.00 0.00 80 1013.7
20160430032643 58 333 1.0 7.0 0.00 0.00 0.00 80 1013.5
20160430032543 58 333 3.0 7.0 0.00 0.00 0.00 80 1013.3
20160430032443 58 333 2.0 7.0 0.00 0.00 0.00 80 1013.7
20160430032343 58 334 1.0 7.0 0.00 0.00 0.00 80 1013.6
20160430032142 58 335 2.0 7.0 0.00 0.00 0.00 79 1013.3
20160430032042 58 334 3.0 7.0 0.00 0.00 0.00 79 1013.4
20160430031943 58 331 3.0 7.0 0.00 0.00 0.00 79 1013.5
20160430031843 58 325 3.0 6.0 0.00 0.00 0.00 79 1013.6
20160430031642 58 310 3.0 6.0 0.00 0.00 0.00 79 1013.6
20160430031443 58 302 2.0 4.0 0.00 0.00 0.00 79 1013.7
20160430031142 58 309 1.0 5.0 0.00 0.00 0.00 81 1013.8
20160430031042 58 313 2.0 5.0 0.00 0.00 0.00 80 1013.8
20160430030843 58 314 1.0 5.0 0.00 0.00 0.00 80 1013.6
20160430030343 58 317 2.0 5.0 0.00 0.00 0.00 80 1013.6
20160430030243 58 313 3.0 5.0 0.00 0.00 0.00 81 1013.5
20160430030143 58 307 3.0 5.0 0.00 0.00 0.00 81 1013.8
20160430030043 58 298 3.0 5.0 0.00 0.00 0.00 81 1013.6
20160430025942 58 291 2.0 5.0 0.00 0.00 0.00 81 1013.5
20160430025843 58 287 1.0 7.0 0.00 0.00 0.00 81 1013.5
20160430025743 58 277 1.0 7.0 0.00 0.00 0.00 80 1013.7
20160430025643 58 280 1.0 7.0 0.00 0.00 0.00 80 1013.4
20160430025542 58 285 1.0 7.0 0.00 0.00 0.00 80 1013.6
20160430025243 58 284 3.0 7.0 0.00 0.00 0.00 80 1013.6
20160430025143 58 284 3.0 7.0 0.00 0.00 0.00 80 1013.6
20160430024942 58 292 3.0 7.0 0.00 0.00 0.00 80 1013.8
20160430024843 58 295 4.0 7.0 0.00 0.00 0.00 81 1013.8
20160430024743 58 303 2.0 5.0 0.00 0.00 0.00 81 1013.7
20160430024542 58 297 3.0 5.0 0.00 0.00 0.00 81 1013.8
20160430024343 58 295 0.0 3.0 0.00 0.00 0.00 81 1013.9
20160430024142 58 293 1.0 3.0 0.00 0.00 0.00 80 1013.9
20160430023642 59 339 1.0 9.0 0.00 0.00 0.00 79 1013.6
20160430023443 59 335 1.0 9.0 0.00 0.00 0.00 79 1013.8
20160430023343 59 334 1.0 9.0 0.00 0.00 0.00 79 1013.6
20160430023243 59 334 2.0 9.0 0.00 0.00 0.00 79 1013.6
20160430023142 59 330 1.0 9.0 0.00 0.00 0.00 78 1013.9
20160430022843 59 311 5.0 9.0 0.00 0.00 0.00 77 1013.6
20160430022743 59 304 5.0 9.0 0.00 0.00 0.00 78 1013.6
20160430022543 59 302 0.0 8.0 0.00 0.00 0.00 77 1013.6
20160430022143 59 306 5.0 8.0 0.00 0.00 0.00 76 1013.5
20160430022043 59 304 5.0 8.0 0.00 0.00 0.00 76 1013.6
20160430021943 59 305 4.0 7.0 0.00 0.00 0.00 76 1013.4
20160430021843 59 305 4.0 5.0 0.00 0.00 0.00 76 1013.3
20160430021643 59 295 3.0 6.0 0.00 0.00 0.00 76 1013.5
20160430021543 59 287 3.0 6.0 0.00 0.00 0.00 77 1013.3
20160430021443 59 281 3.0 6.0 0.00 0.00 0.00 77 1013.6
20160430020443 60 278 5.0 9.0 0.00 0.00 0.00 74 1013.1
20160430020343 60 281 5.0 9.0 0.00 0.00 0.00 74 1013.1
20160430020242 60 281 5.0 9.0 0.00 0.00 0.00 74 1013.1
20160430020142 60 285 5.0 9.0 0.00 0.00 0.00 74 1013.2
20160430020042 60 283 5.0 9.0 0.00 0.00 0.00 74 1013.2
20160430015943 60 288 5.0 9.0 0.00 0.00 0.00 74 1013.1
20160430015843 60 297 5.0 9.0 0.00 0.00 0.00 73 1013.1
20160430015743 60 307 4.0 9.0 0.00 0.00 0.00 73 1013.0
20160430015643 60 308 6.0 9.0 0.00 0.00 0.00 73 1013.0
20160430015443 60 295 3.0 7.0 0.00 0.00 0.00 73 1013.1
20160430015343 60 292 3.0 7.0 0.00 0.00 0.00 73 1013.0
20160430015142 60 291 5.0 7.0 0.00 0.00 0.00 73 1013.0
20160430015042 60 303 2.0 5.0 0.00 0.00 0.00 74 1013.0
20160430014743 60 283 1.0 3.0 0.00 0.00 0.00 73 1013.2
20160430014642 60 278 1.0 3.0 0.00 0.00 0.00 73 1012.9
20160430014542 60 270 0.0 2.0 0.00 0.00 0.00 73 1012.9
20160430014343 60 277 1.0 2.0 0.00 0.00 0.00 72 1012.7
20160430014143 60 283 0.0 3.0 0.00 0.00 0.00 73 1012.8
20160430013842 61 283 1.0 3.0 0.00 0.00 0.00 69 1012.6
20160430013743 61 282 0.0 3.0 0.00 0.00 0.00 69 1012.5
20160430013643 61 281 1.0 3.0 0.00 0.00 0.00 70 1012.8
20160430013543 61 280 1.0 3.0 0.00 0.00 0.00 70 1012.7
20160430013243 61 272 1.0 3.0 0.00 0.00 0.00 69 1012.5
20160430013143 61 270 1.0 3.0 0.00 0.00 0.00 70 1012.5
20160430012942 61 278 0.0 3.0 0.00 0.00 0.00 69 1012.6
20160430012842 61 284 1.0 3.0 0.00 0.00 0.00 69 1012.4
20160430012743 61 284 0.0 3.0 0.00 0.00 0.00 69 1012.4
20160430012342 61 293 1.0 3.0 0.00 0.00 0.00 69 1012.3
20160430012243 61 293 0.0 3.0 0.00 0.00 0.00 69 1012.4
20160430011943 61 288 2.0 3.0 0.00 0.00 0.00 69 1012.2
20160430011842 61 281 1.0 3.0 0.00 0.00 0.00 70 1012.2
20160430011543 61 280 1.0 3.0 0.00 0.00 0.00 70 1012.2
20160430011443 61 284 1.0 3.0 0.00 0.00 0.00 69 1012.4
20160430011342 61 289 0.0 3.0 0.00 0.00 0.00 70 1012.3
20160430011043 61 295 0.0 4.0 0.00 0.00 0.00 70 1012.3
20160430010643 61 301 1.0 4.0 0.00 0.00 0.00 69 1012.5
20160430010543 61 300 1.0 4.0 0.00 0.00 0.00 69 1012.3
20160430010443 62 297 1.0 4.0 0.00 0.00 0.00 69 1012.3
20160430010143 61 287 1.0 3.0 0.00 0.00 0.00 70 1012.1
20160430010043 61 281 1.0 3.0 0.00 0.00 0.00 70 1012.1
20160430005943 61 270 0.0 3.0 0.00 0.00 0.00 70 1012.0
20160430005642 61 270 0.0 3.0 0.00 0.00 0.00 70 1012.0
20160430005043 62 270 0.0 3.0 0.00 0.00 0.00 68 1012.0
20160430004842 62 270 0.0 5.0 0.00 0.00 0.00 68 1012.1
20160430004742 62 277 0.0 5.0 0.00 0.00 0.00 68 1012.0
20160430004242 62 288 0.0 5.0 0.00 0.00 0.00 67 1012.0
20160430004043 62 294 1.0 5.0 0.00 0.00 0.00 66 1011.8
20160430003943 62 300 3.0 5.0 0.00 0.00 0.00 66 1012.0
20160430003743 62 306 1.0 5.0 0.00 0.00 0.00 65 1012.0
20160430003642 62 306 0.0 5.0 0.00 0.00 0.00 65 1012.0
20160430003443 62 312 1.0 5.0 0.00 0.00 0.00 64 1011.9
20160430003142 62 301 1.0 3.0 0.00 0.00 0.00 64 1011.8
20160430002643 63 270 0.0 3.0 0.00 0.00 0.00 63 1011.8
20160430002543 63 270 0.0 3.0 0.00 0.00 0.00 63 1011.8
20160430002443 63 270 0.0 3.0 0.00 0.00 0.00 63 1011.9
20160430002242 62 270 0.0 1.0 0.00 0.00 0.00 65 1011.6
20160430002143 62 0 0.0 0.0 0.00 0.00 0.00 65 1011.8
20160430002043 62 0 0.0 0.0 0.00 0.00 0.00 64 1011.8
20160430001943 63 0 0.0 0.0 0.00 0.00 0.00 63 1011.6
20160430001842 63 0 0.0 0.0 0.00 0.00 0.00 62 1011.6
20160430001742 63 0 0.0 0.0 0.00 0.00 0.00 62 1011.6
20160430001643 63 0 0.0 0.0 0.00 0.00 0.00 62 1011.6
20160430001342 63 0 0.0 0.0 0.00 0.00 0.00 61 1011.6
20160430001143 63 0 0.0 0.0 0.00 0.00 0.00 61 1011.7
20160430000842 63 90 0.0 1.0 0.00 0.00 0.00 61 1011.8
20160430000543 64 90 0.0 1.0 0.00 0.00 0.00 62 1011.7
20160430000443 64 90 0.0 1.0 0.00 0.00 0.00 62 1011.7
20160430000342 64 90 0.0 1.0 0.00 0.00 0.00 62 1011.8
20160430000043 64 90 0.0 1.0 0.00 0.00 0.00 62 1011.7
20160429235943 64 90 0.0 1.0 0.00 0.00 0.00 62 1011.6
20160429235843 64 90 0.0 1.0 0.00 0.00 0.00 62 1011.7
20160429235742 64 90 0.0 1.0 0.00 0.00 0.00 62 1011.8
20160429235443 64 90 0.0 1.0 0.00 0.00 0.00 62 1011.8
20160429235343 64 90 0.0 1.0 0.00 0.00 0.00 62 1012.0
20160429234542 65 0 0.0 0.0 0.00 0.00 0.00 59 1012.1
20160429234443 65 0 0.0 0.0 0.00 0.00 0.00 58 1011.8
20160429234343 65 90 0.0 2.0 0.00 0.00 0.00 58 1012.0
20160429234042 65 90 0.0 2.0 0.00 0.00 0.00 59 1011.8
20160429233943 65 90 0.0 2.0 0.00 0.00 0.00 59 1011.7
20160429233843 65 90 0.0 2.0 0.00 0.00 0.00 59 1012.0
20160429233743 65 90 0.0 2.0 0.00 0.00 0.00 59 1012.0
20160429233443 65 90 1.0 2.0 0.00 0.00 0.00 59 1011.7
20160429233242 65 90 0.0 1.0 0.00 0.00 0.00 59 1011.9
20160429232943 65 135 0.0 1.0 0.00 0.00 0.00 60 1011.8
20160429232742 65 135 0.0 1.0 0.00 0.00 0.00 61 1011.6
20160429232343 65 135 0.0 1.0 0.00 0.00 0.00 60 1011.6
20160429232142 65 146 0.0 3.0 0.00 0.00 0.00 60 1011.6
20160429231943 65 159 0.0 3.0 0.00 0.00 0.00 63 1011.6
20160429231843 65 159 0.0 3.0 0.00 0.00 0.00 65 1011.4
20160429231743 65 159 0.0 3.0 0.00 0.00 0.00 65 1011.6
20160429231542 65 159 0.0 3.0 0.00 0.00 0.00 64 1011.6
20160429231343 65 160 1.0 3.0 0.00 0.00 0.00 63 1011.6
20160429231242 65 170 1.0 3.0 0.00 0.00 0.00 65 1011.5
20160429231143 65 181 1.0 2.0 0.00 0.00 0.00 65 1011.6
20160429231043 65 0 0.0 0.0 0.00 0.00 0.00 63 1011.5
20160429230742 66 181 0.0 1.0 0.00 0.00 0.00 60 1011.5
20160429230542 67 181 0.0 1.0 0.00 0.00 0.00 57 1011.3
20160429230042 66 181 0.0 2.0 0.00 0.00 0.00 58 1011.3
20160429225843 66 181 0.0 2.0 0.00 0.00 0.00 56 1011.2
20160429225743 66 181 0.0 3.0 0.00 0.00 0.00 56 1011.3
20160429225442 67 181 0.0 3.0 0.00 0.00 0.00 58 1011.3
20160429225343 67 174 0.0 3.0 0.00 0.00 0.00 58 1011.4
20160429225244 67 165 0.0 3.0 0.00 0.00 0.00 58 1011.3
20160429225042 66 162 0.0 3.0 0.00 0.00 0.00 57 1011.3
20160429224542 66 152 0.0 2.0 0.00 0.00 0.00 55 1011.2
20160429224243 67 175 0.0 4.0 0.00 0.00 0.00 58 1011.2
20160429224142 67 181 0.0 4.0 0.00 0.00 0.00 59 1011.3
20160429224042 67 181 0.0 4.0 0.00 0.00 0.00 57 1011.2
20160429223942 67 181 0.0 4.0 0.00 0.00 0.00 56 1011.3
20160429223542 66 174 0.0 4.0 0.00 0.00 0.00 54 1011.1
20160429223442 66 173 3.0 4.0 0.00 0.00 0.00 54 1011.1
20160429223342 67 173 1.0 3.0 0.00 0.00 0.00 56 1011.3
20160429223243 67 169 0.0 3.0 0.00 0.00 0.00 54 1011.3
20160429223143 67 168 1.0 3.0 0.00 0.00 0.00 56 1011.3
20160429223042 67 166 1.0 3.0 0.00 0.00 0.00 61 1011.3
20160429222843 67 166 0.0 3.0 0.00 0.00 0.00 56 1011.0
20160429222342 67 170 2.0 3.0 0.00 0.00 0.00 54 1011.3
20160429222243 68 181 0.0 1.0 0.00 0.00 0.00 55 1011.0
20160429222143 68 181 0.0 1.0 0.00 0.00 0.00 57 1011.2
20160429222042 68 181 0.0 1.0 0.00 0.00 0.00 54 1011.0
20160429221842 68 181 0.0 1.0 0.00 0.00 0.00 57 1010.9
20160429221743 68 181 0.0 3.0 0.00 0.00 0.00 55 1011.1
20160429221643 68 176 0.0 3.0 0.00 0.00 0.00 53 1011.1
20160429221543 68 173 0.0 3.0 0.00 0.00 0.00 55 1011.0
20160429221342 68 155 0.0 3.0 0.00 0.00 0.00 55 1011.1
20160429221242 68 140 0.0 3.0 0.00 0.00 0.00 55 1011.1
20160429221143 68 120 0.0 3.0 0.00 0.00 0.00 56 1011.0
20160429220642 68 61 0.0 2.0 0.00 0.00 0.00 54 1010.9
20160429220142 68 149 0.0 4.0 0.00 0.00 0.00 54 1010.8
20160429215843 68 175 1.0 4.0 0.00 0.00 0.00 55 1010.9
20160429215743 68 181 1.0 4.0 0.00 0.00 0.00 54 1010.8
20160429215642 68 181 0.0 4.0 0.00 0.00 0.00 55 1010.7
20160429215542 68 186 0.0 4.0 0.00 0.00 0.00 55 1010.8
20160429215442 68 190 0.0 4.0 0.00 0.00 0.00 54 1010.7
20160429215342 67 191 1.0 4.0 0.00 0.00 0.00 55 1010.6
20160429215243 67 192 1.0 4.0 0.00 0.00 0.00 55 1010.6
20160429215142 67 195 1.0 3.0 0.00 0.00 0.00 55 1010.7
20160429215042 67 198 0.0 3.0 0.00 0.00 0.00 55 1010.6
20160429214643 69 286 1.0 3.0 0.00 0.00 0.00 50 1010.9
20160429214143 69 317 0.0 3.0 0.00 0.00 0.00 55 1010.6
20160429214042 69 312 0.0 3.0 0.00 0.00 0.00 54 1010.7
20160429213842 69 300 0.0 3.0 0.00 0.00 0.00 50 1010.6
20160429213542 68 283 0.0 3.0 0.00 0.00 0.00 53 1010.6
20160429213442 69 279 0.0 3.0 0.00 0.00 0.00 50 1010.6
20160429213043 68 273 1.0 3.0 0.00 0.00 0.00 52 1010.5
20160429212642 68 266 1.0 4.0 0.00 0.00 0.00 53 1010.6
20160429212543 68 255 1.0 4.0 0.00 0.00 0.00 52 1010.8
20160429212342 68 223 1.0 5.0 0.00 0.00 0.00 54 1010.4
20160429212143 69 208 1.0 5.0 0.00 0.00 0.00 52 1010.4
20160429212043 69 190 1.0 6.0 0.00 0.00 0.00 49 1010.5
20160429211543 68 201 1.0 6.0 0.00 0.00 0.00 51 1010.4
20160429211443 68 208 3.0 6.0 0.00 0.00 0.00 52 1010.9
20160429211143 68 208 3.0 6.0 0.00 0.00 0.00 49 1010.6
20160429211042 69 226 0.0 5.0 0.00 0.00 0.00 49 1010.6
20160429210742 69 230 1.0 5.0 0.00 0.00 0.00 51 1010.8
20160429210642 69 233 1.0 5.0 0.00 0.00 0.00 50 1010.8
20160429210443 69 245 2.0 5.0 0.00 0.00 0.00 50 1010.7
20160429210242 69 256 2.0 3.0 0.00 0.00 0.00 49 1011.0
20160429210142 69 259 1.0 3.0 0.00 0.00 0.00 47 1010.8
20160429205943 69 248 2.0 3.0 0.00 0.00 0.00 48 1010.8
20160429205843 70 236 1.0 3.0 0.00 0.00 0.00 45 1010.8
20160429205543 70 235 1.0 3.0 0.00 0.00 0.00 47 1010.8
20160429205243 69 220 0.0 3.0 0.00 0.00 0.00 45 1010.7
20160429204843 71 242 1.0 3.0 0.00 0.00 0.00 51 1011.0
20160429204642 71 222 1.0 3.0 0.00 0.00 0.00 49 1011.0
20160429204443 71 204 1.0 5.0 0.00 0.00 0.00 48 1010.9
20160429204343 71 186 1.0 9.0 0.00 0.00 0.00 51 1010.8
20160429204242 70 175 0.0 9.0 0.00 0.00 0.00 45 1010.8
20160429203943 70 175 1.0 9.0 0.00 0.00 0.00 52 1010.7
20160429203843 70 176 1.0 9.0 0.00 0.00 0.00 52 1010.6
20160429203743 70 185 0.0 9.0 0.00 0.00 0.00 54 1010.7
20160429203442 69 178 3.0 9.0 0.00 0.00 0.00 50 1010.7
20160429203343 70 177 5.0 9.0 0.00 0.00 0.00 54 1010.7
20160429202942 69 182 3.0 7.0 0.00 0.00 0.00 50 1010.7
20160429202842 69 181 3.0 7.0 0.00 0.00 0.00 52 1010.6
20160429202743 69 168 2.0 6.0 0.00 0.00 0.00 51 1010.7
20160429202342 71 201 3.0 5.0 0.00 0.00 0.00 52 1010.8
20160429202243 71 197 1.0 5.0 0.00 0.00 0.00 52 1010.6
20160429201642 70 173 3.0 5.0 0.00 0.00 0.00 49 1010.6
20160429201543 70 185 1.0 5.0 0.00 0.00 0.00 49 1010.8
20160429201442 69 197 1.0 5.0 0.00 0.00 0.00 49 1010.9
20160429201342 69 211 1.0 5.0 0.00 0.00 0.00 48 1010.9
20160429200742 70 263 2.0 5.0 0.00 0.00 0.00 45 1010.8
20160429200443 69 255 3.0 5.0 0.00 0.00 0.00 48 1011.0
20160429200043 69 224 3.0 7.0 0.00 0.00 0.00 48 1011.0
20160429195942 69 216 3.0 7.0 0.00 0.00 0.00 48 1010.9
20160429195742 69 203 3.0 8.0 0.00 0.00 0.00 48 1011.0
20160429195643 69 204 2.0 8.0 0.00 0.00 0.00 50 1010.9
20160429195543 69 198 3.0 8.0 0.00 0.00 0.00 51 1011.0
20160429195342 69 187 5.0 8.0 0.00 0.00 0.00 53 1011.0
20160429195242 69 187 1.0 8.0 0.00 0.00 0.00 55 1010.9
20160429195143 69 187 3.0 8.0 0.00 0.00 0.00 50 1011.0
20160429194842 69 192 4.0 8.0 0.00 0.00 0.00 49 1011.0
20160429194742 70 202 5.0 8.0 0.00 0.00 0.00 49 1011.2
20160429194543 70 202 3.0 7.0 0.00 0.00 0.00 52 1011.4
20160429194442 69 204 1.0 7.0 0.00 0.00 0.00 52 1011.3
20160429194143 70 194 3.0 7.0 0.00 0.00 0.00 51 1011.5
20160429194042 70 200 3.0 7.0 0.00 0.00 0.00 49 1011.5
20160429193943 70 177 3.0 9.0 0.00 0.00 0.00 51 1011.5
20160429193642 70 162 2.0 10.0 0.00 0.00 0.00 53 1011.4
20160429193443 69 161 3.0 10.0 0.00 0.00 0.00 53 1011.3
20160429193242 69 167 1.0 10.0 0.00 0.00 0.00 50 1011.5
20160429192943 68 171 6.0 10.0 0.00 0.00 0.00 51 1011.2
20160429192843 69 173 5.0 10.0 0.00 0.00 0.00 49 1011.2
20160429192742 69 169 3.0 9.0 0.00 0.00 0.00 49 1011.6
20160429192543 69 153 3.0 9.0 0.00 0.00 0.00 53 1011.2
20160429192342 69 153 1.0 9.0 0.00 0.00 0.00 50 1011.3
20160429192242 68 149 6.0 9.0 0.00 0.00 0.00 47 1011.4
20160429192142 69 146 4.0 7.0 0.00 0.00 0.00 50 1011.3
20160429191742 68 163 5.0 7.0 0.00 0.00 0.00 50 1011.1
20160429191642 69 164 3.0 7.0 0.00 0.00 0.00 49 1011.2
20160429191542 69 166 2.0 7.0 0.00 0.00 0.00 48 1011.3
20160429191443 69 175 1.0 8.0 0.00 0.00 0.00 50 1011.3
20160429191343 68 172 1.0 8.0 0.00 0.00 0.00 51 1011.3
20160429191242 69 171 1.0 8.0 0.00 0.00 0.00 50 1011.2
20160429190943 67 153 1.0 11.0 0.00 0.00 0.00 51 1011.1
20160429190843 67 149 2.0 11.0 0.00 0.00 0.00 51 1011.3
20160429190642 68 159 3.0 11.0 0.00 0.00 0.00 54 1011.4
20160429190542 68 168 2.0 11.0 0.00 0.00 0.00 53 1011.3
20160429190443 68 167 3.0 11.0 0.00 0.00 0.00 53 1011.5
20160429190343 69 168 3.0 11.0 0.00 0.00 0.00 53 1011.4
20160429190242 67 172 1.0 11.0 0.00 0.00 0.00 50 1011.4
20160429190142 67 172 2.0 11.0 0.00 0.00 0.00 51 1011.4
20160429190042 68 175 7.0 11.0 0.00 0.00 0.00 53 1011.3
20160429185943 69 184 7.0 11.0 0.00 0.00 0.00 49 1011.4
20160429185842 69 196 5.0 9.0 0.00 0.00 0.00 48 1011.2
20160429185742 69 197 3.0 9.0 0.00 0.00 0.00 50 1011.4
20160429185543 69 201 4.0 9.0 0.00 0.00 0.00 48 1011.3
20160429185442 69 207 4.0 7.0 0.00 0.00 0.00 46 1011.2
20160429184942 69 194 1.0 9.0 0.00 0.00 0.00 52 1011.3
20160429184842 70 176 5.0 9.0 0.00 0.00 0.00 54 1011.1
20160429184742 69 160 2.0 9.0 0.00 0.00 0.00 50 1011.2
20160429184242 69 126 3.0 11.0 0.00 0.00 0.00 54 1011.0
20160429183843 68 138 5.0 11.0 0.00 0.00 0.00 56 1011.0
20160429183742 67 144 6.0 11.0 0.00 0.00 0.00 56 1010.9
20160429183343 68 150 5.0 7.0 0.00 0.00 0.00 53 1011.0
20160429183243 68 153 5.0 7.0 0.00 0.00 0.00 51 1011.1
20160429182843 68 138 3.0 7.0 0.00 0.00 0.00 54 1011.1
20160429182442 68 122 3.0 7.0 0.00 0.00 0.00 54 1011.2
20160429182343 69 133 5.0 7.0 0.00 0.00 0.00 52 1011.2
20160429181942 71 142 1.0 9.0 0.00 0.00 0.00 55 1011.4
20160429181842 70 144 2.0 9.0 0.00 0.00 0.00 55 1011.4
20160429181743 69 138 1.0 9.0 0.00 0.00 0.00 54 1011.2
20160429181642 68 135 2.0 9.0 0.00 0.00 0.00 56 1011.3
20160429181143 66 288 3.0 9.0 0.00 0.00 0.00 55 1011.3
20160429180743 67 310 5.0 7.0 0.00 0.00 0.00 54 1011.2
20160429180642 71 306 4.0 7.0 0.00 0.00 0.00 57 1011.2
20160429180542 71 301 4.0 8.0 0.00 0.00 0.00 57 1011.1
20160429180243 71 245 4.0 13.0 0.00 0.00 0.00 57 1011.1
20160429180042 71 198 4.0 13.0 0.00 0.00 0.00 57 1011.0
20160429175942 71 184 4.0 13.0 0.00 0.00 0.00 57 1011.3
20160429175843 70 185 2.0 13.0 0.00 0.00 0.00 55 1010.9
20160429175742 69 183 3.0 13.0 0.00 0.00 0.00 55 1011.0
20160429175642 70 175 3.0 13.0 0.00 0.00 0.00 56 1011.0
20160429175443 68 174 3.0 13.0 0.00 0.00 0.00 56 1011.2
20160429175242 67 171 7.0 13.0 0.00 0.00 0.00 53 1011.3
20160429175142 67 170 3.0 7.0 0.00 0.00 0.00 50 1011.0
20160429174843 70 208 2.0 7.0 0.00 0.00 0.00 54 1011.2
20160429174642 71 210 2.0 7.0 0.00 0.00 0.00 52 1011.1
20160429174542 70 210 2.0 7.0 0.00 0.00 0.00 53 1011.5
20160429174343 70 224 3.0 7.0 0.00 0.00 0.00 52 1011.2
20160429174242 70 233 1.0 5.0 0.00 0.00 0.00 49 1011.3
20160429174042 69 237 3.0 5.0 0.00 0.00 0.00 50 1011.1
20160429173843 70 203 1.0 5.0 0.00 0.00 0.00 51 1011.2
20160429173742 70 192 1.0 5.0 0.00 0.00 0.00 52 1011.0
20160429173542 69 190 1.0 7.0 0.00 0.00 0.00 52 1011.2
20160429173442 69 177 2.0 7.0 0.00 0.00 0.00 54 1011.3
20160429173142 69 174 2.0 7.0 0.00 0.00 0.00 57 1011.1
20160429173042 69 166 3.0 7.0 0.00 0.00 0.00 58 1011.0
20160429172843 68 184 3.0 7.0 0.00 0.00 0.00 59 1011.0
20160429172742 69 197 2.0 7.0 0.00 0.00 0.00 56 1011.0
20160429172443 69 208 1.0 6.0 0.00 0.00 0.00 60 1011.0
20160429172242 66 223 2.0 9.0 0.00 0.00 0.00 55 1010.8
20160429172142 67 224 3.0 9.0 0.00 0.00 0.00 58 1010.9
20160429172042 68 224 1.0 9.0 0.00 0.00 0.00 57 1010.9
20160429171943 67 227 2.0 9.0 0.00 0.00 0.00 58 1011.0
20160429171843 68 220 2.0 9.0 0.00 0.00 0.00 58 1011.0
20160429171742 68 217 2.0 9.0 0.00 0.00 0.00 57 1011.3
20160429171642 68 221 2.0 9.0 0.00 0.00 0.00 57 1011.0
20160429171543 67 214 2.0 11.0 0.00 0.00 0.00 57 1011.1
20160429171243 68 184 2.0 11.0 0.00 0.00 0.00 59 1011.2
20160429171142 67 168 3.0 11.0 0.00 0.00 0.00 55 1011.2
20160429171042 68 175 3.0 11.0 0.00 0.00 0.00 57 1011.3
20160429170942 68 165 2.0 11.0 0.00 0.00 0.00 58 1011.4
20160429170843 68 166 2.0 11.0 0.00 0.00 0.00 63 1011.6
20160429170342 66 131 3.0 8.0 0.00 0.00 0.00 57 1011.4
20160429170042 67 139 1.0 8.0 0.00 0.00 0.00 62 1011.4
20160429165642 65 142 3.0 9.0 0.00 0.00 0.00 63 1011.6
20160429165442 65 163 3.0 9.0 0.00 0.00 0.00 58 1011.5
20160429165342 65 166 3.0 9.0 0.00 0.00 0.00 59 1011.6
20160429165243 66 191 3.0 9.0 0.00 0.00 0.00 61 1011.6
20160429165142 66 202 3.0 9.0 0.00 0.00 0.00 63 1011.6
20160429165042 65 212 3.0 9.0 0.00 0.00 0.00 57 1011.4
20160429164942 65 225 7.0 9.0 0.00 0.00 0.00 57 1011.6
20160429164542 68 216 3.0 11.0 0.00 0.00 0.00 58 1011.8
20160429164343 67 220 1.0 11.0 0.00 0.00 0.00 58 1011.6
20160429164042 67 184 2.0 11.0 0.00 0.00 0.00 60 1011.9
20160429163643 65 157 6.0 11.0 0.00 0.00 0.00 65 1011.7
20160429163442 65 149 5.0 11.0 0.00 0.00 0.00 60 1011.4
20160429163143 66 152 5.0 11.0 0.00 0.00 0.00 59 1011.6
20160429163043 67 150 8.0 11.0 0.00 0.00 0.00 57 1011.6
20160429162942 69 166 4.0 11.0 0.00 0.00 0.00 58 1011.6
20160429162842 68 174 3.0 11.0 0.00 0.00 0.00 58 1011.3
20160429162643 68 164 3.0 10.0 0.00 0.00 0.00 58 1011.6
20160429162542 68 161 2.0 10.0 0.00 0.00 0.00 56 1011.9
20160429162442 69 158 1.0 10.0 0.00 0.00 0.00 57 1011.5
20160429162342 69 156 2.0 10.0 0.00 0.00 0.00 57 1011.6
20160429162142 67 156 1.0 10.0 0.00 0.00 0.00 59 1011.5
20160429161542 65 172 5.0 8.0 0.00 0.00 0.00 60 1011.7
20160429161242 67 173 1.0 6.0 0.00 0.00 0.00 54 1011.5
20160429161043 68 184 2.0 6.0 0.00 0.00 0.00 57 1011.7
20160429160942 68 184 2.0 6.0 0.00 0.00 0.00 61 1011.5
20160429160542 65 139 1.0 5.0 0.00 0.00 0.00 57 1011.6
20160429160442 65 139 1.0 5.0 0.00 0.00 0.00 57 1011.6
20160429160242 65 159 1.0 8.0 0.00 0.00 0.00 57 1011.6
20160429160143 65 163 1.0 8.0 0.00 0.00 0.00 57 1011.7
20160429155942 65 164 1.0 9.0 0.00 0.00 0.00 57 1011.6
20160429155842 66 192 3.0 9.0 0.00 0.00 0.00 55 1011.3
20160429155643 67 191 1.0 9.0 0.00 0.00 0.00 56 1011.3
20160429155542 67 196 3.0 9.0 0.00 0.00 0.00 56 1011.4
20160429155442 67 184 3.0 9.0 0.00 0.00 0.00 55 1011.5
20160429155342 68 164 4.0 9.0 0.00 0.00 0.00 57 1011.4
20160429155242 67 156 2.0 9.0 0.00 0.00 0.00 62 1011.5
20160429154942 65 152 4.0 9.0 0.00 0.00 0.00 59 1011.5
20160429154542 66 154 4.0 9.0 0.00 0.00 0.00 58 1011.4
20160429154342 67 158 2.0 9.0 0.00 0.00 0.00 58 1011.5
20160429154042 64 152 2.0 9.0 0.00 0.00 0.00 58 1011.3
20160429153842 64 146 4.0 10.0 0.00 0.00 0.00 57 1011.3
20160429153742 64 142 5.0 10.0 0.00 0.00 0.00 58 1011.3
20160429153543 66 142 6.0 10.0 0.00 0.00 0.00 60 1011.3
20160429153442 67 148 3.0 10.0 0.00 0.00 0.00 62 1011.3
20160429153342 65 150 2.0 10.0 0.00 0.00 0.00 60 1011.3
20160429153143 64 151 6.0 10.0 0.00 0.00 0.00 59 1011.1
20160429152842 67 183 6.0 8.0 0.00 0.00 0.00 62 1011.3
20160429152643 66 186 2.0 7.0 0.00 0.00 0.00 59 1011.2
20160429152442 65 179 2.0 11.0 0.00 0.00 0.00 58 1011.2
20160429152342 64 172 3.0 11.0 0.00 0.00 0.00 57 1011.3
20160429152143 65 168 2.0 11.0 0.00 0.00 0.00 60 1011.4
20160429151942 65 165 3.0 11.0 0.00 0.00 0.00 63 1011.4
20160429151442 64 169 6.0 12.0 0.00 0.00 0.00 61 1011.4
20160429151242 64 161 4.0 12.0 0.00 0.00 0.00 64 1011.3
20160429151142 64 159 1.0 12.0 0.00 0.00 0.00 63 1011.3
20160429151042 64 156 3.0 12.0 0.00 0.00 0.00 63 1011.2
20160429150942 63 150 5.0 12.0 0.00 0.00 0.00 62 1011.3
20160429150543 63 133 5.0 11.0 0.00 0.00 0.00 63 1011.1
20160429150442 62 133 5.0 11.0 0.00 0.00 0.00 64 1011.2
20160429150342 64 139 5.0 11.0 0.00 0.00 0.00 64 1011.1
20160429150242 62 148 6.0 11.0 0.00 0.00 0.00 63 1011.0
20160429150142 62 153 5.0 11.0 0.00 0.00 0.00 62 1011.1
20160429150042 62 159 7.0 11.0 0.00 0.00 0.00 63 1011.1